When you browse on this site, cookies collect data to enhance your experience and personalize the content and advertising you see.
Visit our Privacy Policy to learn more. By continuing to use the site, you agree to this use of cookies and data.
  • In United Kingdom
  • List of Countries
  • For 7 days
  • Water Temperature
  • Satellite Maps
  • Weather Map
  • Weather Widgets
  • user-avatar
    Login

    Hourly Weather Kabul

    Today, 18 December, Tuesday

    Time Temperature Precipitation Wind Pressure Humidity
    00:00 +4°C° 0 mm 1 mps 610 mmHg 23%
    01:00 +3°C° 0 mm 2 mps 609 mmHg 23%
    02:00 +3°C° 0 mm 2 mps 609 mmHg 23%
    03:00 +2°C° 0 mm 2 mps 609 mmHg 23%
    04:00 +2°C° 0 mm 2 mps 609 mmHg 23%
    05:00 +3°C° 0 mm 2 mps 609 mmHg 23%
    06:00 +3°C° 0 mm 2 mps 609 mmHg 22%
    07:00 +3°C° 0 mm 2 mps 609 mmHg 22%
    08:00 +3°C° 0 mm 2 mps 609 mmHg 21%
    09:00 +5°C° 0 mm 2 mps 610 mmHg 19%
    10:00 +8°C° 0 mm 1 mps 611 mmHg 16%
    11:00 +11°C° 0 mm 1 mps 612 mmHg 14%
    12:00 +12°C° 0 mm 1 mps 611 mmHg 13%
    13:00 +12°C° 0 mm 1 mps 611 mmHg 13%
    14:00 +13°C° 0 mm 1 mps 611 mmHg 13%
    15:00 +12°C° 0 mm 1 mps 610 mmHg 15%
    16:00 +10°C° 0 mm 1 mps 609 mmHg 17%
    17:00 +9°C° 0 mm 1 mps 609 mmHg 19%
    18:00 +8°C° 0 mm 1 mps 609 mmHg 19%
    19:00 +8°C° 0 mm 1 mps 608 mmHg 20%
    20:00 +7°C° 0 mm 1 mps 608 mmHg 20%
    21:00 +7°C° 0 mm 1 mps 608 mmHg 21%
    22:00 +6°C° 0 mm 1 mps 607 mmHg 21%
    23:00 +6°C° 0 mm 1 mps 607 mmHg 22%

    Tomorrow, 19 December, Wednesday

    Time Temperature Precipitation Wind Pressure Humidity
    00:00 +5°C° 0 mm 1 mps 607 mmHg 22%
    01:00 +5°C° 0 mm 1 mps 606 mmHg 23%
    02:00 +4°C° 0 mm 1 mps 606 mmHg 24%
    03:00 +4°C° 0 mm 1 mps 606 mmHg 24%
    04:00 +3°C° 0 mm 1 mps 606 mmHg 25%
    05:00 +3°C° 0 mm 1 mps 605 mmHg 25%
    06:00 +3°C° 0 mm 1 mps 606 mmHg 25%
    07:00 +3°C° 0 mm 1 mps 606 mmHg 25%
    08:00 +3°C° 0 mm 1 mps 606 mmHg 24%
    09:00 +5°C° 0 mm 1 mps 607 mmHg 21%
    10:00 +7°C° 0 mm 1 mps 608 mmHg 18%
    11:00 +9°C° 0 mm 1 mps 609 mmHg 15%
    12:00 +10°C° 0 mm 1 mps 609 mmHg 14%
    13:00 +10°C° 0 mm 1 mps 609 mmHg 14%
    14:00 +11°C° 0 mm 1 mps 609 mmHg 13%
    15:00 +10°C° 0 mm 1 mps 609 mmHg 15%
    16:00 +8°C° 0 mm 2 mps 609 mmHg 17%
    17:00 +7°C° 0 mm 2 mps 609 mmHg 18%
    18:00 +6°C° 0 mm 2 mps 609 mmHg 20%
    19:00 +5°C° 0 mm 2 mps 609 mmHg 21%
    20:00 +4°C° 0 mm 2 mps 609 mmHg 23%
    21:00 +3°C° 0 mm 2 mps 609 mmHg 24%
    22:00 +3°C° 0 mm 2 mps 609 mmHg 25%
    23:00 +3°C° 0 mm 2 mps 609 mmHg 26%

    Day after tomorrow, 20 December, Thursday

    Time Temperature Precipitation Wind Pressure Humidity
    00:00 +2°C° 0 mm 2 mps 609 mmHg 26%
    01:00 +2°C° 0 mm 2 mps 609 mmHg 27%
    02:00 +2°C° 0 mm 2 mps 609 mmHg 28%
    03:00 +2°C° 0 mm 2 mps 609 mmHg 28%
    04:00 +1°C° 0 mm 2 mps 609 mmHg 29%
    05:00 +1°C° 0 mm 2 mps 609 mmHg 30%
    06:00 +1°C° 0 mm 2 mps 609 mmHg 30%
    07:00 +1°C° 0 mm 2 mps 610 mmHg 30%
    08:00 +1°C° 0 mm 2 mps 610 mmHg 31%
    09:00 +3°C° 0 mm 2 mps 611 mmHg 28%
    10:00 +5°C° 0 mm 2 mps 611 mmHg 24%
    11:00 +8°C° 0 mm 1 mps 612 mmHg 21%
    12:00 +9°C° 0 mm 1 mps 612 mmHg 20%
    13:00 +10°C° 0 mm 1 mps 611 mmHg 19%
    14:00 +10°C° 0 mm 1 mps 611 mmHg 18%
    15:00 +9°C° 0 mm 1 mps 611 mmHg 20%
    16:00 +8°C° 0 mm 1 mps 610 mmHg 22%
    17:00 +7°C° 0 mm 1 mps 610 mmHg 24%
    18:00 +5°C° 0 mm 2 mps 610 mmHg 25%
    19:00 +5°C° 0 mm 2 mps 610 mmHg 25%
    20:00 +4°C° 0 mm 2 mps 610 mmHg 26%
    21:00 +4°C° 0 mm 2 mps 610 mmHg 26%
    22:00 +3°C° 0 mm 2 mps 610 mmHg 27%
    23:00 +3°C° 0 mm 2 mps 609 mmHg 27%

    21 December, Friday

    Time Temperature Precipitation Wind Pressure Humidity
    00:00 +3°C° 0 mm 2 mps 609 mmHg 27%
    01:00 +2°C° 0 mm 2 mps 609 mmHg 26%
    02:00 +2°C° 0 mm 2 mps 608 mmHg 26%
    03:00 +2°C° 0 mm 2 mps 608 mmHg 26%
    04:00 +2°C° 0 mm 2 mps 608 mmHg 26%
    05:00 +2°C° 0 mm 2 mps 607 mmHg 26%
    06:00 +2°C° 0 mm 2 mps 607 mmHg 25%
    07:00 +2°C° 0 mm 2 mps 607 mmHg 24%
    08:00 +2°C° 0 mm 2 mps 608 mmHg 23%
    09:00 +4°C° 0 mm 2 mps 608 mmHg 20%
    10:00 +6°C° 0 mm 2 mps 609 mmHg 18%
    11:00 +10°C° 0 mm 1 mps 610 mmHg 15%
    12:00 +10°C° 0 mm 1 mps 609 mmHg 14%
    13:00 +11°C° 0 mm 1 mps 609 mmHg 14%
    14:00 +12°C° 0 mm 1 mps 609 mmHg 13%
    15:00 +10°C° 0 mm 1 mps 608 mmHg 15%
    16:00 +9°C° 0 mm 1 mps 607 mmHg 17%
    17:00 +7°C° 0 mm 1 mps 606 mmHg 20%
    18:00 +6°C° 0 mm 1 mps 606 mmHg 20%
    19:00 +5°C° 0 mm 1 mps 606 mmHg 21%
    20:00 +5°C° 0 mm 1 mps 606 mmHg 21%
    21:00 +4°C° 0 mm 1 mps 606 mmHg 22%
    22:00 +4°C° 0 mm 1 mps 606 mmHg 22%
    23:00 +3°C° 0 mm 1 mps 606 mmHg 22%

    22 December, Saturday

    Time Temperature Precipitation Wind Pressure Humidity
    00:00 +3°C° 0 mm 1 mps 605 mmHg 23%
    01:00 +2°C° 0 mm 1 mps 605 mmHg 23%
    02:00 +2°C° 0 mm 1 mps 605 mmHg 23%
    03:00 +2°C° 0 mm 1 mps 604 mmHg 23%
    04:00 +1°C° 0 mm 1 mps 604 mmHg 23%
    05:00 +1°C° 0 mm 1 mps 604 mmHg 23%
    06:00 +1°C° 0 mm 1 mps 604 mmHg 23%
    07:00 +1°C° 0 mm 1 mps 604 mmHg 23%
    08:00 +1°C° 0 mm 1 mps 605 mmHg 22%
    09:00 +3°C° 0 mm 1 mps 606 mmHg 20%
    10:00 +5°C° 0 mm 1 mps 606 mmHg 17%
    11:00 +6°C° 0 mm 2 mps 607 mmHg 14%
    12:00 +7°C° 0 mm 2 mps 607 mmHg 14%
    13:00 +7°C° 0 mm 2 mps 607 mmHg 13%
    14:00 +8°C° 0 mm 2 mps 606 mmHg 13%
    15:00 +7°C° 0 mm 2 mps 606 mmHg 14%
    16:00 +6°C° 0 mm 2 mps 606 mmHg 16%
    17:00 +5°C° 0 mm 2 mps 605 mmHg 17%
    18:00 +4°C° 0 mm 2 mps 606 mmHg 18%
    19:00 +3°C° 0 mm 2 mps 606 mmHg 18%
    20:00 +2°C° 0 mm 2 mps 606 mmHg 19%
    21:00 +1°C° 0 mm 2 mps 606 mmHg 20%
    22:00 +1°C° 0 mm 2 mps 606 mmHg 21%
    23:00 +1°C° 0 mm 2 mps 606 mmHg 21%

    23 December, Sunday

    Time Temperature Precipitation Wind Pressure Humidity
    00:00 -1°C° 0 mm 2 mps 605 mmHg 22%
    01:00 -1°C° 0 mm 2 mps 605 mmHg 23%
    02:00 -2°C° 0 mm 2 mps 605 mmHg 24%
    03:00 -2°C° 0 mm 2 mps 604 mmHg 24%
    04:00 -2°C° 0 mm 2 mps 604 mmHg 24%
    05:00 -2°C° 0 mm 2 mps 604 mmHg 25%
    06:00 -2°C° 0 mm 2 mps 605 mmHg 24%
    07:00 -2°C° 0 mm 2 mps 605 mmHg 24%
    08:00 -1°C° 0 mm 2 mps 605 mmHg 24%
    09:00 +1°C° 0 mm 2 mps 606 mmHg 22%
    10:00 +2°C° 0 mm 2 mps 606 mmHg 21%
    11:00 +2°C° 0 mm 3 mps 606 mmHg 20%
    12:00 +2°C° 0 mm 3 mps 606 mmHg 21%
    13:00 +2°C° 0 mm 3 mps 606 mmHg 22%
    14:00 +2°C° 0 mm 3 mps 606 mmHg 23%
    15:00 +3°C° 0 mm 2 mps 606 mmHg 26%
    16:00 +2°C° 0 mm 2 mps 606 mmHg 29%
    17:00 +2°C° 0 mm 2 mps 606 mmHg 32%
    18:00 +1°C° 0 mm 2 mps 606 mmHg 35%
    19:00 +1°C° 0 mm 2 mps 606 mmHg 38%
    20:00 -1°C° 0 mm 2 mps 607 mmHg 41%
    21:00 -1°C° 0 mm 2 mps 607 mmHg 42%
    22:00 -1°C° 0 mm 2 mps 607 mmHg 44%
    23:00 -2°C° 0 mm 2 mps 607 mmHg 45%
    Show more